Weather History for Sheridan, WY

Change the Weather History Date:

Wednesday, March 12, 2014

  Actual Average Record
Temperature  
Mean Temperature 30 °F 34 °F  
Max Temperature 45 °F 47 °F 69 °F (1916)
Min Temperature 14 °F 21 °F -16 °F (1950)
Degree Days  
Heating Degree Days 35 31  
Month to date heating degree days 431 394  
Since 1 July heating degree days 6181 5929  
Cooling Degree Days 0 0  
Month to date cooling degree days 0 0  
Year to date cooling degree days 0 0  
Moisture  
Dew Point 16 °F    
Average Humidity 56    
Maximum Humidity 75    
Minimum Humidity 37    
Precipitation  
Precipitation 0.00 in 0.03 in 0.61 in (1929)
Month to date precipitation 0.69 0.31  
Year to date precipitation 2.54 1.41  
Sea Level Pressure  
Sea Level Pressure 30.29 in    
Wind  
Wind Speed 3 mph (SW)    
Max Wind Speed 8 mph    
Max Gust Speed 11 mph    
Visibility 10 miles    
Events      
T = Trace of Precipitation, MM = Missing Value Source: NWS Daily Summary

Daily Weather History Graph

Daily Weather History Graph

Search for Another Location

Airport:

Trip Planner

Search our weather history database for the weather conditions in past years. The results will help you decide how hot, cold, wet, or windy it might be!

Date:

Astronomy

Mar. 12, 2014 Rise Set
Actual Time 7:25 AM MDT 7:10 PM MDT
Civil Twilight 6:56 AM MDT 7:39 PM MDT
Nautical Twilight 6:22 AM MDT 8:13 PM MDT
Astronomical Twilight 5:48 AM MDT 8:47 PM MDT
Moon 3:36 PM MDT (3/12) 5:06 AM MDT (3/12)
Length of Visible Light 12h 42m
Length of Day
11h 44m
Waxing Gibbous, 86% of the Moon is Illuminated
Mar 12
Waxing Gibbous
Mar 16
Full
Mar 23
Last Quarter
Mar 30
New
Apr 7
First Quarter

Hourly Weather History & Observations

Time (MDT) Temp. Windchill Dew Point Humidity Pressure Visibility Wind Dir Wind Speed Gust Speed Precip Events Conditions
12:53 AM 17.1 °F 11.7 °F 7.0 °F 65% 30.40 in 10.0 mi WSW 3.5 mph - N/A   Clear
1:53 AM 18.0 °F 9.8 °F 7.0 °F 62% 30.38 in 10.0 mi SSW 5.8 mph - N/A   Clear
2:53 AM 19.0 °F - 8.1 °F 62% 30.36 in 10.0 mi Calm Calm - N/A   Clear
3:53 AM 18.0 °F - 6.1 °F 60% 30.35 in 10.0 mi Calm Calm - N/A   Clear
4:53 AM 17.1 °F - 7.0 °F 65% 30.34 in 10.0 mi Calm Calm - N/A   Clear
5:53 AM 18.0 °F 11.1 °F 8.1 °F 65% 30.35 in 10.0 mi South 4.6 mph - N/A   Clear
6:53 AM 19.9 °F - 10.0 °F 65% 30.35 in 10.0 mi Calm Calm - N/A   Clear
7:53 AM 25.0 °F - 12.0 °F 58% 30.35 in 10.0 mi Calm Calm - N/A   Clear
8:53 AM 30.0 °F - 18.0 °F 61% 30.36 in 10.0 mi Calm Calm - N/A   Clear
9:53 AM 30.9 °F - 18.0 °F 59% 30.37 in 10.0 mi Calm Calm - N/A   Clear
10:53 AM 34.0 °F 31.0 °F 19.9 °F 56% 30.37 in 10.0 mi South 3.5 mph - N/A   Clear
11:53 AM 37.9 °F - 19.0 °F 47% 30.34 in 10.0 mi Calm Calm - N/A   Clear
12:53 PM 41.0 °F 37.1 °F 18.0 °F 40% 30.34 in 10.0 mi WSW 5.8 mph - N/A   Clear
1:53 PM 42.1 °F 37.7 °F 21.0 °F 43% 30.31 in 10.0 mi West 6.9 mph - N/A   Overcast
2:53 PM 43.0 °F 38.8 °F 21.0 °F 42% 30.28 in 10.0 mi West 6.9 mph - N/A   Clear
3:53 PM 44.1 °F 40.8 °F 19.9 °F 38% 30.26 in 10.0 mi WSW 5.8 mph - N/A   Clear
4:53 PM 44.1 °F 41.5 °F 21.9 °F 42% 30.25 in 10.0 mi WSW 4.6 mph - N/A   Clear
5:53 PM 43.0 °F 38.2 °F 23.0 °F 45% 30.22 in 10.0 mi West 8.1 mph - N/A   Clear
6:53 PM 37.0 °F 32.4 °F 25.0 °F 62% 30.22 in 10.0 mi SW 5.8 mph - N/A   Clear
7:53 PM 32.0 °F 27.5 °F 21.9 °F 66% 30.21 in 10.0 mi SW 4.6 mph - N/A   Clear
8:53 PM 30.0 °F 23.2 °F 21.0 °F 69% 30.19 in 10.0 mi South 6.9 mph - N/A   Clear
9:53 PM 28.0 °F 20.8 °F 19.0 °F 69% 30.16 in 10.0 mi South 6.9 mph - N/A   Clear
10:53 PM 27.0 °F 23.0 °F 19.0 °F 72% 30.14 in 10.0 mi SW 3.5 mph - N/A   Clear
11:53 PM 27.0 °F - 18.0 °F 69% 30.11 in 10.0 mi Calm Calm - N/A   Clear